Regional Weather Roundup
Issued by NWS

Home | Current Version | Previous Version | Text Only | Print | Product List | Glossary On
Versions: 1 2 3 4 5 6 7 8 9 10 11 12 13 14 15 16 17 18 19 20 21 22 23 24 25 26 27 28 29 30 31 32 33 34 35 36 37 38 39 40 41 42 43 44 45 46 47 48 49 50
000
ASUS43 KMKX 261659
RWRWI

WISCONSIN REGIONAL WEATHER ROUNDUP
NATIONAL WEATHER SERVICE MILWAUKEE/SULLIVAN WI
1200 PM CDT THU APR 26 2018

NOTE: "FAIR" INDICATES FEW OR NO CLOUDS BELOW 12,000 FEET WITH NO
SIGNIFICANT WEATHER AND/OR OBSTRUCTIONS TO VISIBILITY.

WIZ001-002-006>008-014>016-023>028-261800-
NORTHWEST WISCONSIN

CITY           SKY/WX    TMP DP  RH WIND       PRES   REMARKS
SUPERIOR ARPT  FAIR      56  35  44 NW15      29.83R
ASHLAND        FAIR      57  33  40 W10       29.80R
HAYWARD        FAIR      58  33  39 SW8       29.81R
SIREN          PTSUNNY   58  32  38 W12       29.83S
CUMBERLAND     FAIR      55  34  44 W14G22    29.83R
RICE LAKE      FAIR      61  32  33 W12G21    29.84R
CHETEK         FAIR      61  32  34 SW10G17   29.82F
LADYSMITH      FAIR      61  33  34 SW10      29.83F
EAU CLAIRE     NOT AVBL
MENOMONIE      FAIR      65  30  27 SW12G20   29.83F
NEW RICHMOND   FAIR      58  29  33 W12       29.84R
OSCEOLA        FAIR      58  33  39 NW6       29.87S
$$

WIZ003>005-009-010-017-018-261800-
NORTH CENTRAL WISCONSIN

CITY           SKY/WX    TMP DP  RH WIND       PRES   REMARKS
MANITOWISH WTR FAIR      54  31  42 SW12      29.80S
ARBOR VITAE    FAIR      57  32  38 W8G16     29.80F
WOODRUFF       FAIR      57  32  38 W8G16     29.80F
RHINELANDER    FAIR      58  32  37 W10       29.82F
EAGLE RIVER    FAIR      56  28  35 SW12      29.80F
LAND O LAKES   FAIR      56  28  33 SW8       29.81F
PHILLIPS       FAIR      56  32  40 SW9G18    29.81R
TOMAHAWK       FAIR      56  31  37 SW5       29.82F
MEDFORD        FAIR      55  35  46 SW9       29.84F
MERRILL        FAIR      58  32  38 W7        29.84F
$$

WIZ029-030-035-036-043>047-261800-
CENTRAL WISCONSIN

CITY           SKY/WX    TMP DP  RH WIND       PRES   REMARKS
WAUSAU         FAIR      59  31  34 W12       29.83F
MOSINEE        MOSUNNY   57  32  38 SW15      29.87F
MARSHFIELD     FAIR      59  34  39 SW13      29.84F
STEVENS POINT  FAIR      56  32  40 W10       29.87F
WAUPACA        FAIR      62  27  26 W12       29.88F
WAUTOMA        FAIR      61  28  28 SW10G18   29.89S
WISC RAPIDS    FAIR      62  29  28 SW13      29.88F
CAMP DOUGLAS   NOT AVBL
$$

WIZ011>013-019>022-031-037>040-048>050-261800-
NORTHEAST WISCONSIN

CITY           SKY/WX    TMP DP  RH WIND       PRES   REMARKS
ANTIGO         FAIR      55  33  44 W12G18    29.85F
SHAWANO        FAIR      61  32  34 SW10      29.86F
OCONTO         FAIR      59  30  33 W13       29.86F
STURGEON BAY   FAIR      58  31  35 W16       29.87F
GREEN BAY      FAIR      58  37  45 SW12      29.88F
MANITOWOC      FAIR      59  31  34 W13       29.90S
APPLETON       MOSUNNY   57  28  33 SW10      29.87F
CLINTONVILLE   FAIR      60  28  29 W10       29.86F
OSHKOSH        FAIR      59  33  37 W8G18     29.89F
$$

WIZ032>034-041-042-053>061-261800-
SOUTHWEST WISCONSIN

CITY           SKY/WX    TMP DP  RH WIND       PRES   REMARKS
LA CROSSE      FAIR      66  33  29 W12       29.88F
SPARTA         FAIR      61  31  32 W10       29.89F
VIROQUA        FAIR      60  35  39 W12       29.90F
BOSCOBEL       FAIR      62  34  35 VRB3      29.92F
PRAIRIE DU CHI FAIR      63  29  28 W9        29.91F
PLATTEVILLE    FAIR      60  35  39 W9        29.94S
$$

WIZ056-057-062-063-064-067-068-261800-
SOUTH CENTRAL WISCONSIN

CITY           SKY/WX    TMP DP  RH WIND       PRES   REMARKS
REEDSBURG      FAIR      60  30  32 W3        29.90F
BARABOO/DELLS  FAIR      58  29  32 W10G17    29.91S
LONE ROCK      NOT AVBL
MINERAL POINT  FAIR      61  32  33 W10G16    29.93S
MADISON        PTSUNNY   58  32  37 W8        29.92S
MIDDLETON      FAIR      61  30  30 W5        29.93S
WATERTOWN      FAIR      58  35  41 SW8       29.92S
MONROE         FAIR      57  32  38 SW10      29.93F
JANESVILLE     PTSUNNY   63  30  29 W9        29.93F
$$

WIZ051-052-058>065-066-070>072-261800-
SOUTHEAST WISCONSIN

CITY           SKY/WX    TMP DP  RH WIND       PRES   REMARKS
MILWAUKEE      PTSUNNY   61  31  32 SW10      29.93S
WAUKESHA       SUNNY     57  30  35 SW6       29.93S
MILWAUKEE/TIMM SUNNY     61  27  27 W8        29.93S
RACINE         FAIR      55  32  41 S12       29.95S
BURLINGTON     FAIR      60  29  31 SW5       29.93F
KENOSHA        FAIR      61  30  31 W6        29.93F
FOND DU LAC    FAIR      57  36  45 SW8       29.90F
SHEBOYGAN      FAIR      61  32  33 SW12      29.90S
WEST BEND      FAIR      59  32  36 W9        29.91S
JUNEAU         FAIR      56  35  45 SW8       29.93S
$$

LSZ147-162-261800-
LAKE SUPERIOR

STATION/POSITION TIME  TEMP    WIND        PRES    WAVE
                       AIR SEA DIR/SP/G            HT/PER
                 (UTC) (F)     (DEG/KT/KT) (MB)    (FT/S)
DEVILS ISLAND    1600   41     250/ 14/ 16 1009.4R
SAXON HARBOR     1640   58     210/  5/ 12 1008.1F
$$

LMZ867-665-643>646-261800-
LAKE MICHIGAN

STATION/POSITION TIME  TEMP    WIND        PRES    WAVE
                       AIR SEA DIR/SP/G            HT/PER
                 (UTC) (F)     (DEG/KT/KT) (MB)    (FT/S)
NORTHPORT PIER   1640   44                 1010.8F
KEWAUNEE LAKESHO 1630   41     150/  9/ 12 1011.4F
SHEBOYGAN LAKESH 1600   40     160/ 14/ 15 1013.0F
PORT WASHINGTON  1630   45     170/  8/  9 1014.2S
MILWAUKEE LAKESH 1630   42     140/ 12/ 13   N/A
KENOSHA   LAKESH 1600   44                 1014.6
$$

TC  - TEMPERATURE IN CELSIUS
VSB - VISIBILITY IN STATUTE MILES
WCI - WIND CHILL INDEX
HX  - HEAT INDEX





USA.gov is the U.S. government's official web portal to all federal, state and local government web resources and services.